Time,TemperatureF,DewpointF,PressureIn,WindDirection,WindDirectionDegrees,WindSpeedMPH,WindSpeedGustMPH,Humidity,HourlyPrecipIn,Conditions,Clouds,dailyrainin,SoftwareType,DateUTC
2013-04-17 00:00:00,70.2,65.4,30.11,NE,53,2.0,3.0,85,0.00,CLR,CLR,0.00,WeatherDisplay:10.37,2013-04-17 04:00:00,
2013-04-17 00:05:00,70.2,65.4,30.11,NE,49,3.0,3.0,85,0.00,CLR,CLR,0.00,WeatherDisplay:10.37,2013-04-17 04:05:00,
2013-04-17 00:10:00,70.2,65.4,30.11,NE,43,1.0,4.0,85,0.00,CLR,CLR,0.00,WeatherDisplay:10.37,2013-04-17 04:10:00,
2013-04-17 00:15:00,70.0,65.3,30.11,NE,46,1.0,2.0,85,0.00,CLR,CLR,0.00,WeatherDisplay:10.37,2013-04-17 04:15:00,
2013-04-17 00:20:00,69.8,65.4,30.11,NE,48,2.0,2.0,86,0.00,CLR,CLR,0.00,WeatherDisplay:10.37,2013-04-17 04:20:00,
2013-04-17 00:25:00,69.8,65.4,30.11,NE,46,1.0,2.0,86,0.00,CLR,CLR,0.00,WeatherDisplay:10.37,2013-04-17 04:25:00,
2013-04-17 00:30:00,69.6,65.2,30.11,NE,45,1.0,2.0,86,0.00,CLR,CLR,0.00,WeatherDisplay:10.37,2013-04-17 04:30:00,
2013-04-17 00:40:00,69.4,65.4,30.11,NE,37,2.0,4.0,87,0.00,CLR,CLR,0.00,WeatherDisplay:10.37,2013-04-17 04:40:00,
2013-04-17 00:50:00,69.5,65.4,30.11,NNE,32,2.0,3.0,87,0.00,CLR,CLR,0.00,WeatherDisplay:10.37,2013-04-17 04:50:00,
2013-04-17 01:00:00,69.5,65.5,30.10,NE,39,2.0,4.0,87,0.00,CLR,CLR,0.00,WeatherDisplay:10.37,2013-04-17 05:00:00,
2013-04-17 01:05:00,69.4,65.4,30.10,NE,41,2.0,3.0,87,0.00,CLR,CLR,0.00,WeatherDisplay:10.37,2013-04-17 05:05:00,
2013-04-17 01:10:00,69.4,65.7,30.10,NE,41,2.0,3.0,88,0.00,CLR,CLR,0.00,WeatherDisplay:10.37,2013-04-17 05:10:00,
2013-04-17 01:15:00,69.3,65.6,30.10,NE,36,2.0,3.0,88,0.00,CLR,CLR,0.00,WeatherDisplay:10.37,2013-04-17 05:15:00,
2013-04-17 01:20:00,69.1,65.4,30.10,NE,35,0.0,2.0,88,0.00,CLR,CLR,0.00,WeatherDisplay:10.37,2013-04-17 05:20:00,
2013-04-17 01:25:00,68.9,65.5,30.10,NE,34,1.0,2.0,89,0.00,CLR,CLR,0.00,WeatherDisplay:10.37,2013-04-17 05:25:00,
2013-04-17 01:30:00,68.7,65.0,30.10,NNE,18,1.0,2.0,88,0.00,CLR,CLR,0.00,WeatherDisplay:10.37,2013-04-17 05:30:00,
2013-04-17 01:35:00,68.6,64.9,30.10,NNE,25,1.0,2.0,88,0.00,CLR,CLR,0.00,WeatherDisplay:10.37,2013-04-17 05:35:00,
2013-04-17 01:40:00,68.7,65.0,30.10,NNE,31,1.0,2.0,88,0.00,CLR,CLR,0.00,WeatherDisplay:10.37,2013-04-17 05:40:00,
2013-04-17 01:45:00,68.7,65.3,30.10,NE,40,1.0,2.0,89,0.00,CLR,CLR,0.00,WeatherDisplay:10.37,2013-04-17 05:45:00,
2013-04-17 01:55:00,68.7,65.3,30.09,NE,38,2.0,2.0,89,0.00,CLR,CLR,0.00,WeatherDisplay:10.37,2013-04-17 05:55:00,
2013-04-17 02:05:00,68.7,65.3,30.09,NNE,27,1.0,2.0,89,0.00,CLR,CLR,0.00,WeatherDisplay:10.37,2013-04-17 06:05:00,
2013-04-17 02:10:00,68.5,65.2,30.09,NNE,32,2.0,3.0,89,0.00,CLR,CLR,0.00,WeatherDisplay:10.37,2013-04-17 06:10:00,
2013-04-17 02:20:00,68.5,65.5,30.09,NNE,25,2.0,3.0,90,0.00,CLR,CLR,0.00,WeatherDisplay:10.37,2013-04-17 06:20:00,
2013-04-17 02:30:00,68.4,65.3,30.08,NNE,18,1.0,4.0,90,0.00,CLR,CLR,0.00,WeatherDisplay:10.37,2013-04-17 06:30:00,
2013-04-17 02:40:00,68.4,65.6,30.08,NNE,16,1.0,3.0,91,0.00,CLR,CLR,0.00,WeatherDisplay:10.37,2013-04-17 06:40:00,
2013-04-17 02:50:00,68.3,65.6,30.08,North,10,2.0,3.0,91,0.00,CLR,CLR,0.00,WeatherDisplay:10.37,2013-04-17 06:50:00,
2013-04-17 03:00:00,68.2,65.5,30.08,North,7,1.0,2.0,91,0.00,CLR,CLR,0.00,WeatherDisplay:10.37,2013-04-17 07:00:00,
2013-04-17 03:05:00,68.0,65.3,30.08,North,6,0.0,2.0,91,0.00,CLR,CLR,0.00,WeatherDisplay:10.37,2013-04-17 07:05:00,
2013-04-17 03:15:00,67.9,65.2,30.08,NNE,27,1.0,2.0,91,0.00,CLR,CLR,0.00,WeatherDisplay:10.37,2013-04-17 07:15:00,
2013-04-17 03:20:00,67.8,65.1,30.08,NNE,22,0.0,2.0,91,0.00,CLR,CLR,0.00,WeatherDisplay:10.37,2013-04-17 07:20:00,
2013-04-17 03:25:00,68.0,65.3,30.08,NNE,18,1.0,2.0,91,0.00,CLR,CLR,0.00,WeatherDisplay:10.37,2013-04-17 07:25:00,
2013-04-17 03:30:00,68.1,65.4,30.08,NE,34,2.0,3.0,91,0.00,CLR,CLR,0.00,WeatherDisplay:10.37,2013-04-17 07:30:00,
2013-04-17 03:40:00,68.0,65.3,30.08,NNE,25,2.0,3.0,91,0.00,CLR,CLR,0.00,WeatherDisplay:10.37,2013-04-17 07:40:00,
2013-04-17 03:45:00,68.0,65.3,30.08,NNE,23,0.0,3.0,91,0.00,CLR,CLR,0.00,WeatherDisplay:10.37,2013-04-17 07:45:00,
2013-04-17 03:50:00,68.0,65.3,30.08,NNE,20,2.0,4.0,91,0.00,CLR,CLR,0.00,WeatherDisplay:10.37,2013-04-17 07:50:00,
2013-04-17 04:00:00,68.0,65.6,30.08,NNE,28,2.0,3.0,92,0.00,CLR,CLR,0.00,WeatherDisplay:10.37,2013-04-17 08:00:00,
2013-04-17 04:05:00,68.0,65.9,30.08,NNE,16,2.0,3.0,93,0.00,SCT,SCT,0.00,WeatherDisplay:10.37,2013-04-17 08:05:00,
2013-04-17 04:10:00,68.0,65.9,30.08,NNE,13,1.0,3.0,93,0.00,SCT,SCT,0.00,WeatherDisplay:10.37,2013-04-17 08:10:00,
2013-04-17 04:20:00,67.9,65.8,30.08,NNE,21,1.0,2.0,93,0.00,SCT,SCT,0.00,WeatherDisplay:10.37,2013-04-17 08:20:00,
2013-04-17 04:30:00,68.0,65.9,30.07,NNE,30,1.0,5.0,93,0.00,SCT,SCT,0.00,WeatherDisplay:10.37,2013-04-17 08:30:00,
2013-04-17 04:35:00,67.8,65.4,30.08,NNE,32,1.0,2.0,92,0.00,SCT,SCT,0.00,WeatherDisplay:10.37,2013-04-17 08:35:00,
2013-04-17 04:40:00,67.7,65.3,30.07,NNE,18,1.0,2.0,92,0.00,SCT,SCT,0.00,WeatherDisplay:10.37,2013-04-17 08:40:00,
2013-04-17 04:50:00,67.6,65.5,30.08,NNE,15,1.0,3.0,93,0.00,SCT,SCT,0.00,WeatherDisplay:10.37,2013-04-17 08:50:00,
2013-04-17 04:55:00,67.6,65.5,30.08,North,8,1.0,2.0,93,0.00,SCT,SCT,0.00,WeatherDisplay:10.37,2013-04-17 08:55:00,
2013-04-17 05:00:00,67.6,65.5,30.08,North,4,0.0,2.0,93,0.00,SCT,SCT,0.00,WeatherDisplay:10.37,2013-04-17 09:00:00,
2013-04-17 05:05:00,67.6,65.5,30.08,North,4,0.0,2.0,93,0.00,FEW,FEW,0.00,WeatherDisplay:10.37,2013-04-17 09:05:00,
2013-04-17 05:10:00,67.6,65.5,30.08,North,2,1.0,2.0,93,0.00,FEW,FEW,0.00,WeatherDisplay:10.37,2013-04-17 09:10:00,
2013-04-17 05:15:00,67.6,65.5,30.08,NNE,25,1.0,2.0,93,0.00,FEW,FEW,0.00,WeatherDisplay:10.37,2013-04-17 09:15:00,
2013-04-17 05:20:00,67.6,65.5,30.08,NNE,27,1.0,2.0,93,0.00,FEW,FEW,0.00,WeatherDisplay:10.37,2013-04-17 09:20:00,
2013-04-17 05:25:00,67.6,65.5,30.08,NNE,12,1.0,3.0,93,0.00,FEW,FEW,0.00,WeatherDisplay:10.37,2013-04-17 09:25:00,
2013-04-17 05:30:00,67.6,65.5,30.08,North,5,2.0,5.0,93,0.00,FEW,FEW,0.00,WeatherDisplay:10.37,2013-04-17 09:30:00,
2013-04-17 05:40:00,67.6,65.9,30.08,NNE,17,3.0,5.0,94,0.00,SCT,SCT,0.00,WeatherDisplay:10.37,2013-04-17 09:40:00,
2013-04-17 05:50:00,67.6,65.8,30.08,NNE,13,6.0,6.0,94,0.00,SCT,SCT,0.00,WeatherDisplay:10.37,2013-04-17 09:50:00,
2013-04-17 05:55:00,67.5,65.7,30.08,NNE,18,2.0,6.0,94,0.00,SCT,SCT,0.00,WeatherDisplay:10.37,2013-04-17 09:55:00,
2013-04-17 06:05:00,67.6,65.8,30.09,NNE,14,5.0,5.0,94,0.00,SCT,SCT,0.00,WeatherDisplay:10.37,2013-04-17 10:05:00,
2013-04-17 06:10:00,67.5,65.7,30.09,North,5,2.0,5.0,94,0.00,SCT,SCT,0.00,WeatherDisplay:10.37,2013-04-17 10:10:00,
2013-04-17 06:20:00,67.5,65.7,30.09,North,359,2.0,4.0,94,0.00,SCT,SCT,0.00,WeatherDisplay:10.37,2013-04-17 10:20:00,
2013-04-17 06:25:00,67.5,65.7,30.09,North,11,5.0,6.0,94,0.00,SCT,SCT,0.00,WeatherDisplay:10.37,2013-04-17 10:25:00,
2013-04-17 06:30:00,67.5,65.7,30.09,North,7,5.0,6.0,94,0.00,SCT,SCT,0.00,WeatherDisplay:10.37,2013-04-17 10:30:00,
2013-04-17 06:35:00,67.5,65.7,30.09,North,11,2.0,6.0,94,0.00,SCT,SCT,0.00,WeatherDisplay:10.37,2013-04-17 10:35:00,
2013-04-17 06:40:00,67.5,65.7,30.09,NNE,18,2.0,5.0,94,0.00,SCT,SCT,0.00,WeatherDisplay:10.37,2013-04-17 10:40:00,
2013-04-17 06:50:00,67.4,65.6,30.10,North,11,2.0,5.0,94,0.00,SCT,SCT,0.00,WeatherDisplay:10.37,2013-04-17 10:50:00,
2013-04-17 07:00:00,67.3,65.5,30.10,North,351,5.0,7.0,94,0.00,SCT,SCT,0.00,WeatherDisplay:10.37,2013-04-17 11:00:00,
2013-04-17 07:05:00,67.3,65.5,30.10,NNE,13,3.0,6.0,94,0.00,SCT,SCT,0.00,WeatherDisplay:10.37,2013-04-17 11:05:00,
2013-04-17 07:10:00,67.3,65.5,30.10,NNE,28,1.0,4.0,94,0.00,SCT,SCT,0.00,WeatherDisplay:10.37,2013-04-17 11:10:00,
2013-04-17 07:20:00,67.3,65.5,30.11,NNE,29,1.0,3.0,94,0.00,BKN,BKN,0.00,WeatherDisplay:10.37,2013-04-17 11:20:00,
2013-04-17 07:30:00,67.3,65.5,30.11,NNW,347,1.0,2.0,94,0.00,BKN,BKN,0.00,WeatherDisplay:10.37,2013-04-17 11:30:00,
2013-04-17 07:35:00,67.3,65.5,30.11,NNW,342,1.0,3.0,94,0.00,BKN,BKN,0.00,WeatherDisplay:10.37,2013-04-17 11:35:00,
2013-04-17 07:40:00,67.3,65.5,30.11,NNW,338,2.0,3.0,94,0.00,BKN,BKN,0.00,WeatherDisplay:10.37,2013-04-17 11:40:00,
2013-04-17 07:50:00,67.4,65.6,30.12,NNW,347,1.0,5.0,94,0.00,OVC,OVC,0.00,WeatherDisplay:10.37,2013-04-17 11:50:00,
2013-04-17 07:55:00,67.5,65.7,30.12,North,0,2.0,2.0,94,0.00,OVC,OVC,0.00,WeatherDisplay:10.37,2013-04-17 11:55:00,
2013-04-17 08:00:00,67.7,65.9,30.12,North,350,1.0,2.0,94,0.00,OVC,OVC,0.00,WeatherDisplay:10.37,2013-04-17 12:00:00,
2013-04-17 08:05:00,67.8,66.0,30.12,North,8,1.0,5.0,94,0.00,OVC,OVC,0.00,WeatherDisplay:10.37,2013-04-17 12:05:00,
2013-04-17 08:10:00,67.8,66.0,30.12,North,11,3.0,5.0,94,0.00,OVC,OVC,0.00,WeatherDisplay:10.37,2013-04-17 12:10:00,
2013-04-17 08:20:00,67.8,66.0,30.12,North,6,3.0,7.0,94,0.00,BKN,BKN,0.00,WeatherDisplay:10.37,2013-04-17 12:20:00,
2013-04-17 08:30:00,68.3,66.5,30.12,NNE,17,3.0,6.0,94,0.00,BKN,BKN,0.00,WeatherDisplay:10.37,2013-04-17 12:30:00,
2013-04-17 08:40:00,69.2,67.4,30.12,NE,39,2.0,7.0,94,0.00,SCT,SCT,0.00,WeatherDisplay:10.37,2013-04-17 12:40:00,
2013-04-17 08:50:00,70.6,68.1,30.12,NNE,31,5.0,6.0,92,0.00,BKN,BKN,0.00,WeatherDisplay:10.37,2013-04-17 12:50:00,
2013-04-17 09:00:00,71.8,68.1,30.12,NNE,13,3.0,6.0,88,0.00,BKN,BKN,0.00,WeatherDisplay:10.37,2013-04-17 13:00:00,
2013-04-17 09:05:00,72.3,68.6,30.12,NNE,29,3.0,6.0,88,0.00,BKN,BKN,0.00,WeatherDisplay:10.37,2013-04-17 13:05:00,
2013-04-17 09:10:00,73.0,68.3,30.12,NE,36,3.0,7.0,85,0.00,BKN,BKN,0.00,WeatherDisplay:10.37,2013-04-17 13:10:00,
2013-04-17 09:15:00,73.6,68.5,30.12,NNE,33,2.0,5.0,84,0.00,BKN,BKN,0.00,WeatherDisplay:10.37,2013-04-17 13:15:00,
2013-04-17 09:20:00,73.7,68.2,30.11,NE,51,6.0,6.0,83,0.00,BKN,BKN,0.00,WeatherDisplay:10.37,2013-04-17 13:20:00,
2013-04-17 09:25:00,73.2,68.1,30.11,NE,39,5.0,7.0,84,0.00,BKN,BKN,0.00,WeatherDisplay:10.37,2013-04-17 13:25:00,
2013-04-17 09:30:00,73.1,68.3,30.11,NNE,19,3.0,9.0,85,0.00,BKN,BKN,0.00,WeatherDisplay:10.37,2013-04-17 13:30:00,
2013-04-17 09:40:00,73.8,68.3,30.11,NE,52,2.0,6.0,83,0.00,BKN,BKN,0.00,WeatherDisplay:10.37,2013-04-17 13:40:00,
2013-04-17 09:45:00,73.8,68.3,30.11,NE,50,5.0,6.0,83,0.00,BKN,BKN,0.00,WeatherDisplay:10.37,2013-04-17 13:45:00,
2013-04-17 09:50:00,74.2,68.7,30.11,NE,49,5.0,6.0,83,0.00,BKN,BKN,0.00,WeatherDisplay:10.37,2013-04-17 13:50:00,
2013-04-17 09:55:00,74.1,67.9,30.11,NNE,25,7.0,8.0,81,0.00,BKN,BKN,0.00,WeatherDisplay:10.37,2013-04-17 13:55:00,
2013-04-17 10:00:00,73.4,67.9,30.11,North,5,7.0,8.0,83,0.00,BKN,BKN,0.00,WeatherDisplay:10.37,2013-04-17 14:00:00,
2013-04-17 10:10:00,73.8,67.6,30.11,NNE,18,5.0,8.0,81,0.00,BKN,BKN,0.00,WeatherDisplay:10.37,2013-04-17 14:10:00,
2013-04-17 10:20:00,76.1,68.3,30.11,NNE,33,3.0,6.0,77,0.00,BKN,BKN,0.00,WeatherDisplay:10.37,2013-04-17 14:20:00,
2013-04-17 10:25:00,77.2,69.4,30.11,NE,48,2.0,5.0,77,0.00,BKN,BKN,0.00,WeatherDisplay:10.37,2013-04-17 14:25:00,
2013-04-17 10:30:00,77.2,68.2,30.11,NE,54,3.0,6.0,74,0.00,BKN,BKN,0.00,WeatherDisplay:10.37,2013-04-17 14:30:00,
2013-04-17 10:35:00,77.0,67.7,30.11,ENE,70,3.0,6.0,73,0.00,BKN,BKN,0.00,WeatherDisplay:10.37,2013-04-17 14:35:00,
2013-04-17 10:40:00,77.4,68.8,30.11,East,82,1.0,5.0,75,0.00,BKN,BKN,0.00,WeatherDisplay:10.37,2013-04-17 14:40:00,
2013-04-17 10:45:00,77.6,67.5,30.11,NE,49,6.0,6.0,71,0.00,BKN,BKN,0.00,WeatherDisplay:10.37,2013-04-17 14:45:00,
2013-04-17 10:50:00,77.4,67.2,30.10,ENE,59,3.0,9.0,71,0.00,BKN,BKN,0.00,WeatherDisplay:10.37,2013-04-17 14:50:00,
2013-04-17 10:55:00,77.2,66.2,30.10,NE,44,6.0,10.0,69,0.00,BKN,BKN,0.00,WeatherDisplay:10.37,2013-04-17 14:55:00,
2013-04-17 11:00:00,77.4,65.5,30.10,NE,40,8.0,10.0,67,0.00,BKN,BKN,0.00,WeatherDisplay:10.37,2013-04-17 15:00:00,
2013-04-17 11:05:00,77.4,65.5,30.10,NE,49,6.0,9.0,67,0.00,BKN,BKN,0.00,WeatherDisplay:10.37,2013-04-17 15:05:00,
2013-04-17 11:10:00,78.0,65.8,30.10,ENE,59,5.0,6.0,66,0.00,BKN,BKN,0.00,WeatherDisplay:10.37,2013-04-17 15:10:00,
2013-04-17 11:15:00,78.8,66.0,30.09,ENE,61,5.0,7.0,65,0.00,BKN,BKN,0.00,WeatherDisplay:10.37,2013-04-17 15:15:00,
2013-04-17 11:20:00,78.6,66.3,30.10,NE,55,5.0,9.0,66,0.00,BKN,BKN,0.00,WeatherDisplay:10.37,2013-04-17 15:20:00,
2013-04-17 11:30:00,79.2,65.1,30.09,ENE,59,7.0,9.0,62,0.00,BKN,BKN,0.00,WeatherDisplay:10.37,2013-04-17 15:30:00,
2013-04-17 11:40:00,79.0,64.4,30.09,ENE,57,8.0,12.0,61,0.00,BKN,BKN,0.00,WeatherDisplay:10.37,2013-04-17 15:40:00,
2013-04-17 11:50:00,78.8,64.2,30.09,ENE,59,6.0,12.0,61,0.00,BKN,BKN,0.00,WeatherDisplay:10.37,2013-04-17 15:50:00,
2013-04-17 12:00:00,79.8,65.1,30.08,NE,54,6.0,9.0,61,0.00,BKN,BKN,0.00,WeatherDisplay:10.37,2013-04-17 16:00:00,
2013-04-17 12:05:00,80.2,64.6,30.08,NE,56,8.0,12.0,59,0.00,BKN,BKN,0.00,WeatherDisplay:10.37,2013-04-17 16:05:00,
2013-04-17 12:10:00,79.9,65.2,30.08,ENE,62,5.0,12.0,61,0.00,BKN,BKN,0.00,WeatherDisplay:10.37,2013-04-17 16:10:00,
2013-04-17 12:15:00,79.9,64.8,30.08,NE,44,7.0,9.0,60,0.00,BKN,BKN,0.00,WeatherDisplay:10.37,2013-04-17 16:15:00,
2013-04-17 12:20:00,79.3,64.2,30.08,NE,39,9.0,10.0,60,0.00,BKN,BKN,0.00,WeatherDisplay:10.37,2013-04-17 16:20:00,
2013-04-17 12:30:00,82.0,65.3,30.08,ENE,66,5.0,7.0,57,0.00,BKN,BKN,0.00,WeatherDisplay:10.37,2013-04-17 16:30:00,
2013-04-17 12:40:00,80.4,63.8,30.08,ENE,58,7.0,12.0,57,0.00,BKN,BKN,0.00,WeatherDisplay:10.37,2013-04-17 16:40:00,
2013-04-17 12:45:00,80.8,64.1,30.08,ENE,61,6.0,12.0,57,0.00,BKN,BKN,0.00,WeatherDisplay:10.37,2013-04-17 16:45:00,
2013-04-17 12:50:00,82.3,65.0,30.07,NE,56,5.0,9.0,56,0.00,BKN,BKN,0.00,WeatherDisplay:10.37,2013-04-17 16:50:00,
2013-04-17 13:00:00,81.6,64.9,30.07,NE,54,5.0,9.0,57,0.00,BKN,BKN,0.00,WeatherDisplay:10.37,2013-04-17 17:00:00,
2013-04-17 13:05:00,82.2,64.4,30.07,NE,55,8.0,15.0,55,0.00,BKN,BKN,0.00,WeatherDisplay:10.37,2013-04-17 17:05:00,
2013-04-17 13:10:00,81.3,63.6,30.06,ENE,57,7.0,13.0,55,0.00,BKN,BKN,0.00,WeatherDisplay:10.37,2013-04-17 17:10:00,
2013-04-17 13:15:00,82.0,63.8,30.06,NE,49,6.0,12.0,54,0.00,BKN,BKN,0.00,WeatherDisplay:10.37,2013-04-17 17:15:00,
2013-04-17 13:20:00,83.0,63.5,30.06,NE,55,8.0,10.0,52,0.00,BKN,BKN,0.00,WeatherDisplay:10.37,2013-04-17 17:20:00,
2013-04-17 13:30:00,82.3,63.5,30.05,NE,47,7.0,13.0,53,0.00,BKN,BKN,0.00,WeatherDisplay:10.37,2013-04-17 17:30:00,
2013-04-17 13:40:00,81.4,63.7,30.05,NE,37,9.0,17.0,55,0.00,BKN,BKN,0.00,WeatherDisplay:10.37,2013-04-17 17:40:00,
2013-04-17 13:45:00,80.5,63.9,30.05,NE,35,9.0,13.0,57,0.00,BKN,BKN,0.00,WeatherDisplay:10.37,2013-04-17 17:45:00,
2013-04-17 13:50:00,81.0,63.8,30.05,NE,35,12.0,14.0,56,0.00,BKN,BKN,0.00,WeatherDisplay:10.37,2013-04-17 17:50:00,
2013-04-17 14:00:00,81.6,62.8,30.05,NE,52,9.0,16.0,53,0.00,BKN,BKN,0.00,WeatherDisplay:10.37,2013-04-17 18:00:00,
2013-04-17 14:05:00,82.5,64.2,30.04,NE,56,7.0,9.0,54,0.00,BKN,BKN,0.00,WeatherDisplay:10.37,2013-04-17 18:05:00,
2013-04-17 14:10:00,82.1,64.3,30.04,NE,53,6.0,9.0,55,0.00,BKN,BKN,0.00,WeatherDisplay:10.37,2013-04-17 18:10:00,
2013-04-17 14:20:00,83.1,64.7,30.04,ENE,60,7.0,10.0,54,0.00,BKN,BKN,0.00,WeatherDisplay:10.37,2013-04-17 18:20:00,
2013-04-17 14:25:00,82.1,63.8,30.04,NE,51,5.0,9.0,54,0.00,BKN,BKN,0.00,WeatherDisplay:10.37,2013-04-17 18:25:00,
2013-04-17 14:30:00,81.8,63.5,30.05,NE,46,9.0,12.0,54,0.00,BKN,BKN,0.00,WeatherDisplay:10.37,2013-04-17 18:30:00,
2013-04-17 14:35:00,81.7,63.9,30.04,ENE,61,3.0,9.0,55,0.00,BKN,BKN,0.00,WeatherDisplay:10.37,2013-04-17 18:35:00,
2013-04-17 14:40:00,81.7,64.4,30.04,NE,52,7.0,9.0,56,0.00,BKN,BKN,0.00,WeatherDisplay:10.37,2013-04-17 18:40:00,
2013-04-17 14:45:00,81.6,64.4,30.04,ENE,63,3.0,9.0,56,0.00,BKN,BKN,0.00,WeatherDisplay:10.37,2013-04-17 18:45:00,
2013-04-17 14:50:00,82.1,63.8,30.04,NE,50,12.0,13.0,54,0.00,BKN,BKN,0.00,WeatherDisplay:10.37,2013-04-17 18:50:00,
2013-04-17 14:55:00,82.3,64.5,30.04,NE,39,7.0,13.0,55,0.00,BKN,BKN,0.00,WeatherDisplay:10.37,2013-04-17 18:55:00,
2013-04-17 15:00:00,81.7,64.5,30.03,NE,45,9.0,12.0,56,0.00,BKN,BKN,0.00,WeatherDisplay:10.37,2013-04-17 19:00:00,
2013-04-17 15:05:00,81.8,64.6,30.03,NE,56,7.0,10.0,56,0.00,BKN,BKN,0.00,WeatherDisplay:10.37,2013-04-17 19:05:00,
2013-04-17 15:10:00,82.0,64.8,30.03,ENE,62,7.0,13.0,56,0.00,BKN,BKN,0.00,WeatherDisplay:10.37,2013-04-17 19:10:00,
2013-04-17 15:15:00,81.8,64.5,30.03,ENE,68,9.0,10.0,56,0.00,BKN,BKN,0.00,WeatherDisplay:10.37,2013-04-17 19:15:00,
2013-04-17 15:20:00,81.3,65.1,30.03,ENE,71,7.0,8.0,58,0.00,BKN,BKN,0.00,WeatherDisplay:10.37,2013-04-17 19:20:00,
2013-04-17 15:30:00,80.2,65.1,30.03,ENE,62,6.0,16.0,60,0.00,BKN,BKN,0.00,WeatherDisplay:10.37,2013-04-17 19:30:00,
2013-04-17 15:40:00,79.3,65.6,30.02,ENE,62,9.0,14.0,63,0.00,BKN,BKN,0.00,WeatherDisplay:10.37,2013-04-17 19:40:00,
2013-04-17 15:50:00,80.2,65.1,30.02,ENE,74,7.0,12.0,60,0.00,BKN,BKN,0.00,WeatherDisplay:10.37,2013-04-17 19:50:00,
2013-04-17 16:00:00,80.4,64.3,30.02,NE,53,12.0,14.0,58,0.00,BKN,BKN,0.00,WeatherDisplay:10.37,2013-04-17 20:00:00,
2013-04-17 16:05:00,80.6,64.5,30.02,ENE,64,6.0,10.0,58,0.00,BKN,BKN,0.00,WeatherDisplay:10.37,2013-04-17 20:05:00,
2013-04-17 16:10:00,80.3,63.7,30.02,ENE,57,7.0,12.0,57,0.00,BKN,BKN,0.00,WeatherDisplay:10.37,2013-04-17 20:10:00,
2013-04-17 16:15:00,80.1,64.4,30.02,NE,50,6.0,12.0,59,0.00,BKN,BKN,0.00,WeatherDisplay:10.37,2013-04-17 20:15:00,
2013-04-17 16:20:00,80.1,64.5,30.02,NE,51,8.0,15.0,59,0.00,BKN,BKN,0.00,WeatherDisplay:10.37,2013-04-17 20:20:00,
2013-04-17 16:25:00,80.6,65.0,30.02,NE,48,6.0,13.0,59,0.00,BKN,BKN,0.00,WeatherDisplay:10.37,2013-04-17 20:25:00,
2013-04-17 16:30:00,81.4,65.2,30.01,NE,55,9.0,14.0,58,0.00,BKN,BKN,0.00,WeatherDisplay:10.37,2013-04-17 20:30:00,
2013-04-17 16:40:00,80.4,66.2,30.01,ENE,66,9.0,10.0,62,0.00,BKN,BKN,0.00,WeatherDisplay:10.37,2013-04-17 20:40:00,
2013-04-17 16:45:00,80.7,66.5,30.01,ENE,68,8.0,9.0,62,0.00,BKN,BKN,0.00,WeatherDisplay:10.37,2013-04-17 20:45:00,
2013-04-17 16:50:00,81.0,66.2,30.01,ENE,71,6.0,10.0,61,0.00,BKN,BKN,0.00,WeatherDisplay:10.37,2013-04-17 20:50:00,
2013-04-17 17:00:00,80.4,66.1,30.01,ENE,60,7.0,13.0,62,0.00,BKN,BKN,0.00,WeatherDisplay:10.37,2013-04-17 21:00:00,
2013-04-17 17:05:00,79.4,66.2,30.01,NE,53,13.0,13.0,64,0.00,BKN,BKN,0.00,WeatherDisplay:10.37,2013-04-17 21:05:00,
2013-04-17 17:10:00,78.9,66.2,30.01,NE,56,9.0,13.0,65,0.00,BKN,BKN,0.00,WeatherDisplay:10.37,2013-04-17 21:10:00,
2013-04-17 17:15:00,79.1,66.3,30.02,ENE,71,7.0,10.0,65,0.00,BKN,BKN,0.00,WeatherDisplay:10.37,2013-04-17 21:15:00,
2013-04-17 17:20:00,78.9,65.7,30.02,ENE,69,7.0,10.0,64,0.00,BKN,BKN,0.00,WeatherDisplay:10.37,2013-04-17 21:20:00,
2013-04-17 17:25:00,79.0,65.8,30.02,ENE,69,7.0,9.0,64,0.00,BKN,BKN,0.00,WeatherDisplay:10.37,2013-04-17 21:25:00,
2013-04-17 17:30:00,79.2,65.9,30.02,ENE,71,5.0,8.0,64,0.00,BKN,BKN,0.00,WeatherDisplay:10.37,2013-04-17 21:30:00,
2013-04-17 17:35:00,79.2,65.9,30.02,ENE,59,8.0,12.0,64,0.00,BKN,BKN,0.00,WeatherDisplay:10.37,2013-04-17 21:35:00,
2013-04-17 17:40:00,78.7,65.5,30.02,ENE,57,9.0,12.0,64,0.00,BKN,BKN,0.00,WeatherDisplay:10.37,2013-04-17 21:40:00,
2013-04-17 17:45:00,78.8,66.0,30.02,ENE,58,3.0,10.0,65,0.00,BKN,BKN,0.00,WeatherDisplay:10.37,2013-04-17 21:45:00,
2013-04-17 17:50:00,78.8,65.6,30.02,ENE,58,8.0,12.0,64,0.00,BKN,BKN,0.00,WeatherDisplay:10.37,2013-04-17 21:50:00,
2013-04-17 17:55:00,78.7,65.5,30.02,NE,56,8.0,9.0,64,0.00,BKN,BKN,0.00,WeatherDisplay:10.37,2013-04-17 21:55:00,
2013-04-17 18:00:00,78.4,65.7,30.02,ENE,57,8.0,9.0,65,0.00,BKN,BKN,0.00,WeatherDisplay:10.37,2013-04-17 22:00:00,
2013-04-17 18:05:00,78.2,65.9,30.02,NE,52,8.0,11.0,66,0.00,BKN,BKN,0.00,WeatherDisplay:10.37,2013-04-17 22:05:00,
2013-04-17 18:10:00,77.9,65.6,30.03,ENE,60,7.0,10.0,66,0.00,BKN,BKN,0.00,WeatherDisplay:10.37,2013-04-17 22:10:00,
2013-04-17 18:15:00,78.4,65.2,30.03,ENE,61,9.0,14.0,64,0.00,BKN,BKN,0.00,WeatherDisplay:10.37,2013-04-17 22:15:00,
2013-04-17 18:20:00,78.1,65.4,30.03,NE,49,8.0,15.0,65,0.00,BKN,BKN,0.00,WeatherDisplay:10.37,2013-04-17 22:20:00,
2013-04-17 18:30:00,77.9,65.6,30.03,ENE,65,8.0,15.0,66,0.00,BKN,BKN,0.00,WeatherDisplay:10.37,2013-04-17 22:30:00,
2013-04-17 18:35:00,77.9,65.7,30.03,ENE,66,6.0,8.0,66,0.00,BKN,BKN,0.00,WeatherDisplay:10.37,2013-04-17 22:35:00,
2013-04-17 18:40:00,77.7,65.9,30.03,ENE,60,6.0,12.0,67,0.00,BKN,BKN,0.00,WeatherDisplay:10.37,2013-04-17 22:40:00,
2013-04-17 18:45:00,77.4,65.6,30.03,NE,53,9.0,10.0,67,0.00,BKN,BKN,0.00,WeatherDisplay:10.37,2013-04-17 22:45:00,
2013-04-17 18:55:00,77.3,65.1,30.03,NE,52,8.0,10.0,66,0.00,BKN,BKN,0.00,WeatherDisplay:10.37,2013-04-17 22:55:00,
2013-04-17 19:00:00,77.1,64.8,30.03,NE,52,6.0,9.0,66,0.00,BKN,BKN,0.00,WeatherDisplay:10.37,2013-04-17 23:00:00,
2013-04-17 19:05:00,76.9,64.6,30.03,ENE,60,10.0,12.0,66,0.00,BKN,BKN,0.00,WeatherDisplay:10.37,2013-04-17 23:05:00,
2013-04-17 19:10:00,76.8,65.0,30.03,ENE,59,5.0,7.0,67,0.00,BKN,BKN,0.00,WeatherDisplay:10.37,2013-04-17 23:10:00,
2013-04-17 19:20:00,76.6,64.4,30.04,ENE,63,5.0,8.0,66,0.00,BKN,BKN,0.00,WeatherDisplay:10.37,2013-04-17 23:20:00,
2013-04-17 19:30:00,76.5,63.8,30.03,ENE,72,3.0,6.0,65,0.00,BKN,BKN,0.00,WeatherDisplay:10.37,2013-04-17 23:30:00,
2013-04-17 19:40:00,76.1,63.9,30.03,ENE,69,7.0,9.0,66,0.00,BKN,BKN,0.00,WeatherDisplay:10.37,2013-04-17 23:40:00,
2013-04-17 19:45:00,75.9,63.7,30.03,ENE,76,3.0,9.0,66,0.00,BKN,BKN,0.00,WeatherDisplay:10.37,2013-04-17 23:45:00,
2013-04-17 19:50:00,75.7,63.6,30.03,ENE,69,5.0,8.0,66,0.00,BKN,BKN,0.00,WeatherDisplay:10.37,2013-04-17 23:50:00,
2013-04-17 20:00:00,75.4,63.7,30.03,ENE,76,5.0,7.0,67,0.00,BKN,BKN,0.00,WeatherDisplay:10.37,2013-04-18 00:00:00,
2013-04-17 20:05:00,75.2,63.9,30.03,ENE,71,3.0,5.0,68,0.00,BKN,BKN,0.00,WeatherDisplay:10.37,2013-04-18 00:05:00,
2013-04-17 20:10:00,75.0,64.6,30.03,ENE,70,3.0,6.0,70,0.00,BKN,BKN,0.00,WeatherDisplay:10.37,2013-04-18 00:10:00,
2013-04-17 20:15:00,74.8,64.8,30.03,ENE,68,3.0,7.0,71,0.00,BKN,BKN,0.00,WeatherDisplay:10.37,2013-04-18 00:15:00,
2013-04-17 20:20:00,74.7,64.6,30.03,ENE,68,2.0,5.0,71,0.00,BKN,BKN,0.00,WeatherDisplay:10.37,2013-04-18 00:20:00,
2013-04-17 20:30:00,74.5,65.3,30.04,ENE,70,3.0,6.0,73,0.00,BKN,BKN,0.00,WeatherDisplay:10.37,2013-04-18 00:30:00,
2013-04-17 20:35:00,74.3,65.1,30.04,ENE,67,3.0,7.0,73,0.00,BKN,BKN,0.00,WeatherDisplay:10.37,2013-04-18 00:35:00,
2013-04-17 20:40:00,74.3,65.1,30.04,ENE,70,2.0,6.0,73,0.00,BKN,BKN,0.00,WeatherDisplay:10.37,2013-04-18 00:40:00,
2013-04-17 20:45:00,74.1,65.3,30.04,ENE,69,5.0,5.0,74,0.00,BKN,BKN,0.00,WeatherDisplay:10.37,2013-04-18 00:45:00,
2013-04-17 20:50:00,73.9,65.5,30.04,ENE,67,3.0,5.0,75,0.00,BKN,BKN,0.00,WeatherDisplay:10.37,2013-04-18 00:50:00,
2013-04-17 20:55:00,73.8,65.3,30.04,ENE,72,3.0,5.0,75,0.00,BKN,BKN,0.00,WeatherDisplay:10.37,2013-04-18 00:55:00,
2013-04-17 21:00:00,73.8,65.3,30.04,ENE,69,3.0,5.0,75,0.00,BKN,BKN,0.00,WeatherDisplay:10.37,2013-04-18 01:00:00,
2013-04-17 21:05:00,73.7,65.6,30.04,ENE,66,3.0,5.0,76,0.00,BKN,BKN,0.00,WeatherDisplay:10.37,2013-04-18 01:05:00,
2013-04-17 21:10:00,73.6,65.5,30.04,ENE,67,2.0,5.0,76,0.00,BKN,BKN,0.00,WeatherDisplay:10.37,2013-04-18 01:10:00,
2013-04-17 21:20:00,73.4,65.7,30.04,ENE,63,2.0,6.0,77,0.00,BKN,BKN,0.00,WeatherDisplay:10.37,2013-04-18 01:20:00,
2013-04-17 21:25:00,73.3,65.6,30.04,ENE,69,2.0,5.0,77,0.00,BKN,BKN,0.00,WeatherDisplay:10.37,2013-04-18 01:25:00,
2013-04-17 21:30:00,73.2,65.6,30.04,ENE,64,2.0,5.0,77,0.00,BKN,BKN,0.00,WeatherDisplay:10.37,2013-04-18 01:30:00,
2013-04-17 21:35:00,73.0,65.8,30.05,ENE,64,2.0,3.0,78,0.00,BKN,BKN,0.00,WeatherDisplay:10.37,2013-04-18 01:35:00,
2013-04-17 21:40:00,73.0,65.8,30.05,ENE,57,2.0,5.0,78,0.00,BKN,BKN,0.00,WeatherDisplay:10.37,2013-04-18 01:40:00,
2013-04-17 21:50:00,72.9,66.0,30.04,ENE,58,5.0,6.0,79,0.00,BKN,BKN,0.00,WeatherDisplay:10.37,2013-04-18 01:50:00,
2013-04-17 22:00:00,72.7,65.8,30.04,NE,50,2.0,4.0,79,0.00,BKN,BKN,0.00,WeatherDisplay:10.37,2013-04-18 02:00:00,
2013-04-17 22:05:00,72.7,66.2,30.05,NE,44,3.0,5.0,80,0.00,BKN,BKN,0.00,WeatherDisplay:10.37,2013-04-18 02:05:00,
2013-04-17 22:10:00,72.6,66.1,30.05,ENE,58,2.0,5.0,80,0.00,BKN,BKN,0.00,WeatherDisplay:10.37,2013-04-18 02:10:00,
2013-04-17 22:15:00,72.4,65.5,30.05,ENE,78,3.0,5.0,79,0.00,BKN,BKN,0.00,WeatherDisplay:10.37,2013-04-18 02:15:00,
2013-04-17 22:20:00,72.3,65.4,30.05,East,88,1.0,3.0,79,0.00,BKN,BKN,0.00,WeatherDisplay:10.37,2013-04-18 02:20:00,
2013-04-17 22:25:00,72.1,65.6,30.05,East,97,3.0,5.0,80,0.00,BKN,BKN,0.00,WeatherDisplay:10.37,2013-04-18 02:25:00,
2013-04-17 22:30:00,72.0,65.5,30.05,East,88,2.0,3.0,80,0.00,BKN,BKN,0.00,WeatherDisplay:10.37,2013-04-18 02:30:00,
2013-04-17 22:40:00,72.0,65.8,30.05,East,79,2.0,5.0,81,0.00,BKN,BKN,0.00,WeatherDisplay:10.37,2013-04-18 02:40:00,
2013-04-17 22:45:00,71.8,65.6,30.05,ENE,78,2.0,4.0,81,0.00,BKN,BKN,0.00,WeatherDisplay:10.37,2013-04-18 02:45:00,
2013-04-17 22:50:00,71.8,65.6,30.05,East,83,2.0,5.0,81,0.00,BKN,BKN,0.00,WeatherDisplay:10.37,2013-04-18 02:50:00,
2013-04-17 22:55:00,71.6,65.8,30.05,ENE,76,2.0,5.0,82,0.00,BKN,BKN,0.00,WeatherDisplay:10.37,2013-04-18 02:55:00,
2013-04-17 23:00:00,71.6,65.8,30.05,ENE,69,1.0,5.0,82,0.00,BKN,BKN,0.00,WeatherDisplay:10.37,2013-04-18 03:00:00,
2013-04-17 23:05:00,71.4,65.6,30.05,East,79,1.0,3.0,82,0.00,SCT,SCT,0.00,WeatherDisplay:10.37,2013-04-18 03:05:00,
2013-04-17 23:10:00,71.2,65.5,30.05,ENE,78,1.0,2.0,82,0.00,SCT,SCT,0.00,WeatherDisplay:10.37,2013-04-18 03:10:00,
2013-04-17 23:20:00,70.9,65.1,30.05,NE,51,1.0,2.0,82,0.00,SCT,SCT,0.00,WeatherDisplay:10.37,2013-04-18 03:20:00,
2013-04-17 23:30:00,71.1,66.0,30.05,ENE,64,1.0,3.0,84,0.00,SCT,SCT,0.00,WeatherDisplay:10.37,2013-04-18 03:30:00,
2013-04-17 23:35:00,70.9,65.9,30.05,ENE,67,2.0,3.0,84,0.00,SCT,SCT,0.00,WeatherDisplay:10.37,2013-04-18 03:35:00,
2013-04-17 23:40:00,70.9,65.8,30.04,ENE,57,3.0,5.0,84,0.00,SCT,SCT,0.00,WeatherDisplay:10.37,2013-04-18 03:40:00,
2013-04-17 23:50:00,70.9,65.8,30.04,ENE,61,2.0,3.0,84,0.00,SCT,SCT,0.00,WeatherDisplay:10.37,2013-04-18 03:50:00,
2013-04-17 23:55:00,70.9,65.8,30.04,ENE,59,2.0,3.0,84,0.00,SCT,SCT,0.00,WeatherDisplay:10.37,2013-04-18 03:55:00,